QPF
0.01 0.01 0.00 0.00 0.00 0.00 0.00 0.00 0.01 0.02 0.04 0.06 0.06 0.05 0.03 0.02 0.01 0.01 0.01 0.01 0.02 0.02 0.02 0.01 0.02 0.03 0.03 0.03 0.02 0.02 0.02 0.02 0.02 0.02 0.02 0.03 0.03 0.03 0.02 0.01 0.01 0.02 0.05 0.06
0.01 0.00 0.01 0.01 0.00 0.00 0.00 0.00 0.00 0.01 0.03 0.04 0.03 0.04 0.03 0.02 0.02 0.02 0.02 0.01 0.02 0.02 0.03 0.03 0.03 0.03 0.03 0.03 0.02 0.02 0.02 0.02 0.02 0.02 0.02 0.02 0.03 0.03 0.03 0.03 0.03 0.03 0.05 0.06
0.01 0.00 0.01 0.02 0.01 0.00 0.00 0.00 0.00 0.01 0.03 0.02 0.03 0.05 0.05 0.02 0.02 0.02 0.02 0.01 0.02 0.03 0.04 0.05 0.04 0.04 0.03 0.02 0.02 0.02 0.02 0.01 0.02 0.02 0.02 0.02 0.02 0.02 0.03 0.05 0.05 0.05 0.06 0.07
0.02 0.02 0.05 0.04 0.01 0.01 0.00 0.00 0.00 0.01 0.03 0.04 0.04 0.05 0.03 0.02 0.01 0.01 0.01 0.02 0.02 0.03 0.03 0.03 0.02 0.02 0.03 0.03 0.02 0.01 0.01 0.01 0.01 0.02 0.03 0.03 0.04 0.06 0.06 0.06 0.07 0.07 0.07 0.07
0.02 0.06 0.05 0.03 0.02 0.02 0.01 0.02 0.01 0.01 0.03 0.02 0.02 0.03 0.05 0.05 0.05 0.03 0.03 0.03 0.03 0.04 0.04 0.03 0.02 0.03 0.04 0.03 0.03 0.02 0.03 0.02 0.02 0.02 0.03 0.04 0.06 0.08 0.08 0.07 0.07 0.07 0.07 0.07
0.03 0.07 0.07 0.06 0.03 0.01 0.02 0.07 0.03 0.01 0.03 0.03 0.02 0.05 0.06 0.06 0.06 0.06 0.06 0.06 0.05 0.04 0.04 0.04 0.04 0.04 0.04 0.04 0.04 0.04 0.03 0.03 0.03 0.03 0.04 0.06 0.06 0.07 0.08 0.08 0.07 0.06 0.05 0.05
0.03 0.06 0.07 0.05 0.03 0.02 0.05 0.08 0.04 0.02 0.02 0.02 0.04 0.06 0.05 0.04 0.05 0.06 0.06 0.06 0.06 0.06 0.06 0.05 0.04 0.04 0.04 0.05 0.06 0.04 0.03 0.03 0.03 0.05 0.05 0.05 0.07 0.09 0.09 0.09 0.07 0.06 0.06 0.05
0.04 0.08 0.10 0.04 0.05 0.04 0.05 0.03 0.02 0.02 0.02 0.02 0.04 0.05 0.05 0.03 0.03 0.03 0.03 0.04 0.04 0.04 0.04 0.04 0.05 0.05 0.06 0.06 0.05 0.03 0.03 0.03 0.03 0.04 0.03 0.04 0.06 0.07 0.07 0.08 0.07 0.06 0.06 0.05
0.05 0.07 0.06 0.02 0.02 0.02 0.01 0.01 0.02 0.02 0.02 0.02 0.02 0.02 0.03 0.02 0.01 0.02 0.02 0.03 0.03 0.03 0.03 0.05 0.06 0.07 0.07 0.04 0.03 0.03 0.03 0.03 0.04 0.03 0.04 0.04 0.04 0.05 0.05 0.06 0.06 0.05 0.05 0.04
0.03 0.03 0.03 0.02 0.01 0.01 0.01 0.01 0.01 0.02 0.01 0.01 0.01 0.01 0.01 0.01 0.01 0.02 0.02 0.03 0.03 0.04 0.04 0.05 0.06 0.05 0.04 0.03 0.02 0.03 0.04 0.04 0.04 0.04 0.04 0.03 0.03 0.03 0.03 0.04 0.04 0.04 0.04 0.03
0.05 0.05 0.04 0.04 0.02 0.01 0.01 0.01 0.02 0.02 0.01 0.02 0.02 0.02 0.02 0.02 0.03 0.03 0.03 0.03 0.04 0.05 0.04 0.03 0.03 0.03 0.02 0.02 0.03 0.03 0.03 0.03 0.03 0.03 0.03 0.03 0.03 0.02 0.03 0.03 0.03 0.03 0.03 0.02
0.06 0.04 0.02 0.02 0.01 0.00 0.00 0.01 0.02 0.02 0.01 0.02 0.03 0.02 0.02 0.03 0.04 0.03 0.02 0.03 0.04 0.05 0.04 0.04 0.04 0.03 0.03 0.02 0.03 0.03 0.03 0.02 0.02 0.02 0.02 0.01 0.01 0.01 0.01 0.01 0.01 0.01 0.01 0.01
0.02 0.01 0.00 0.00 0.00 0.00 0.00 0.00 0.01 0.01 0.02 0.02 0.02 0.02 0.02 0.02 0.02 0.01 0.02 0.03 0.04 0.05 0.04 0.04 0.04 0.04 0.03 0.01 0.02 0.03 0.03 0.02 0.02 0.01 0.01 0.01 0.01 0.01 0.01 0.00 0.00 0.00 0.00 0.00
0.00 0.00 0.00 0.00 0.00 0.00 0.00 0.00 0.00 0.01 0.02 0.02 0.02 0.01 0.01 0.01 0.01 0.02 0.02 0.02 0.03 0.03 0.03 0.03 0.04 0.04 0.03 0.02 0.02 0.02 0.02 0.01 0.01 0.01 0.01 0.01 0.01 0.01 0.00 0.00 0.00 0.00 0.00 0.00
0.00 0.00 0.00 0.00 0.00 0.00 0.00 0.00 0.01 0.01 0.01 0.01 0.01 0.01 0.01 0.01 0.02 0.02 0.01 0.01 0.02 0.02 0.02 0.02 0.02 0.02 0.02 0.02 0.02 0.01 0.01 0.00 0.01 0.01 0.01 0.01 0.01 0.01 0.00 0.00 0.00 0.00 0.00 0.00
0.00 0.00 0.00 0.00 0.00 0.00 0.00 0.00 0.01 0.01 0.01 0.01 0.01 0.01 0.01 0.01 0.02 0.02 0.02 0.02 0.02 0.02 0.02 0.02 0.01 0.01 0.01 0.01 0.01 0.01 0.00 0.00 0.00 0.00 0.00 0.00 0.00 0.00 0.00 0.00 0.00 0.00 0.00 0.00
0.00 0.00 0.00 0.00 0.00 0.00 0.00 0.00 0.01 0.01 0.01 0.00 0.01 0.01 0.01 0.02 0.02 0.02 0.02 0.02 0.03 0.02 0.02 0.01 0.01 0.01 0.00 0.00 0.00 0.00 0.00 0.00 0.00 0.00 0.00 0.00 0.00 0.00 0.00 0.00 0.00 0.00 0.00 0.00
0.00 0.00 0.00 0.00 0.00 0.00 0.00 0.00 0.01 0.01 0.00 0.00 0.00 0.00 0.01 0.02 0.02 0.02 0.02 0.02 0.02 0.01 0.01 0.01 0.00 0.00 0.00 0.00 0.00 0.00 0.00 0.00 0.00 0.00 0.00 0.00 0.00 0.00 0.00 0.00 0.00 0.00 0.00 0.00
0.00 0.00 0.00 0.00 0.00 0.00 0.00 0.01 0.01 0.00 0.00 0.00 0.00 0.00 0.01 0.01 0.01 0.01 0.01 0.01 0.01 0.01 0.01 0.00 0.01 0.00 0.00 0.00 0.00 0.00 0.00 0.00 0.00 0.00 0.00 0.00 0.00 0.00 0.00 0.00 0.00 0.00 0.00 0.00
0.00 0.00 0.00 0.00 0.00 0.00 0.01 0.01 0.00 0.00 0.00 0.01 0.00 0.01 0.01 0.01 0.00 0.00 0.01 0.01 0.01 0.00 0.00 0.00 0.00 0.00 0.00 0.00 0.00 0.00 0.00 0.00 0.00 0.00 0.00 0.00 0.00 0.00 0.00 0.00 0.00 0.00 0.00 0.00
0.00 0.00 0.00 0.00 0.00 0.00 0.01 0.00 0.00 0.00 0.01 0.01 0.00 0.00 0.00 0.00 0.00 0.00 0.01 0.00 0.00 0.00 0.00 0.00 0.00 0.00 0.00 0.00 0.00 0.00 0.00 0.00 0.00 0.00 0.00 0.00 0.00 0.00 0.00 0.00 0.00 0.00 0.00 0.00
0.00 0.00 0.00 0.00 0.00 0.01 0.01 0.00 0.00 0.00 0.00 0.00 0.00 0.00 0.00 0.00 0.00 0.00 0.00 0.00 0.00 0.00 0.00 0.00 0.00 0.00 0.00 0.00 0.00 0.00 0.00 0.00 0.00 0.00 0.00 0.00 0.00 0.00 0.00 0.00 0.00 0.00 0.00 0.00
0.00 0.00 0.00 0.00 0.01 0.01 0.01 0.00 0.00 0.00 0.00 0.00 0.00 0.00 0.00 0.00 0.00 0.00 0.00 0.00 0.00 0.00 0.00 0.00 0.00 0.00 0.00 0.00 0.00 0.00 0.00 0.00 0.00 0.00 0.00 0.00 0.00 0.00 0.00 0.00 0.00 0.00 0.00 0.00
0.00 0.00 0.00 0.00 0.00 0.00 0.01 0.00 0.00 0.00 0.00 0.00 0.00 0.00 0.00 0.00 0.00 0.00 0.00 0.00 0.00 0.00 0.00 0.00 0.00 0.00 0.00 0.00 0.00 0.00 0.00 0.00 0.00 0.00 0.00 0.00 0.00 0.00 0.00 0.00 0.00 0.00 0.00 0.00
0.00 0.00 0.00 0.00 0.00 0.00 0.00 0.00 0.00 0.00 0.00 0.00 0.00 0.00 0.00 0.00 0.00 0.00 0.00 0.00 0.00 0.00 0.00 0.00 0.00 0.00 0.00 0.00 0.00 0.00 0.00 0.00 0.00 0.00 0.00 0.00 0.00 0.00 0.00 0.00 0.00 0.00 0.00 0.00
0.00 0.00 0.00 0.00 0.01 0.01 0.00 0.00 0.00 0.00 0.00 0.00 0.00 0.00 0.00 0.00 0.00 0.00 0.00 0.00 0.00 0.00 0.00 0.00 0.00 0.00 0.00 0.00 0.00 0.00 0.00 0.00 0.00 0.00 0.00 0.00 0.00 0.00 0.00 0.00 0.00 0.00 0.00 0.00
0.01 0.01 0.01 0.01 0.01 0.01 0.00 0.00 0.00 0.00 0.00 0.00 0.00 0.00 0.00 0.00 0.00 0.00 0.00 0.00 0.00 0.00 0.00 0.00 0.00 0.00 0.00 0.00 0.00 0.00 0.00 0.00 0.00 0.00 0.00 0.00 0.00 0.00 0.00 0.00 0.00 0.00 0.00 0.00
MSLP
1010.15 1009.76 1009.44 1009.22 1009.12 1009.15 1009.23 1009.34 1009.40 1009.38 1009.25 1009.05 1008.83 1008.65 1008.60 1008.75 1009.13 1009.76 1010.61 1011.61 1012.67 1013.71 1014.63 1015.39 1015.96 1016.35 1016.59 1016.74 1016.85 1016.98 1017.15 1017.37 1017.64 1017.92 1018.18 1018.39 1018.51 1018.55 1018.51 1018.40 1018.26 1018.11 1017.98 1017.89
1010.99 1010.62 1010.24 1009.89 1009.62 1009.42 1009.28 1009.19 1009.11 1009.02 1008.93 1008.85 1008.81 1008.88 1009.09 1009.48 1010.08 1010.86 1011.80 1012.82 1013.85 1014.80 1015.62 1016.26 1016.71 1017.00 1017.15 1017.23 1017.29 1017.38 1017.52 1017.72 1017.97 1018.24 1018.49 1018.69 1018.81 1018.85 1018.82 1018.72 1018.60 1018.48 1018.38 1018.32
1011.79 1011.48 1011.10 1010.70 1010.31 1009.96 1009.67 1009.43 1009.26 1009.14 1009.09 1009.12 1009.25 1009.51 1009.93 1010.52 1011.27 1012.15 1013.12 1014.12 1015.07 1015.92 1016.61 1017.13 1017.47 1017.66 1017.74 1017.77 1017.79 1017.86 1017.98 1018.17 1018.40 1018.65 1018.88 1019.06 1019.17 1019.21 1019.17 1019.09 1018.99 1018.89 1018.81 1018.78
1012.49 1012.28 1011.95 1011.54 1011.11 1010.68 1010.30 1009.99 1009.78 1009.66 1009.66 1009.78 1010.05 1010.47 1011.05 1011.76 1012.59 1013.51 1014.45 1015.38 1016.22 1016.93 1017.49 1017.88 1018.11 1018.22 1018.25 1018.25 1018.27 1018.33 1018.46 1018.65 1018.87 1019.11 1019.32 1019.49 1019.59 1019.62 1019.59 1019.52 1019.43 1019.35 1019.30 1019.28
1013.10 1012.98 1012.71 1012.34 1011.91 1011.47 1011.06 1010.73 1010.51 1010.42 1010.48 1010.69 1011.07 1011.60 1012.26 1013.03 1013.88 1014.77 1015.64 1016.45 1017.15 1017.72 1018.13 1018.40 1018.55 1018.60 1018.61 1018.61 1018.65 1018.74 1018.89 1019.10 1019.33 1019.57 1019.79 1019.95 1020.05 1020.08 1020.06 1020.00 1019.93 1019.87 1019.83 1019.83
1013.60 1013.55 1013.34 1013.02 1012.62 1012.20 1011.81 1011.50 1011.31 1011.26 1011.38 1011.67 1012.12 1012.71 1013.41 1014.19 1015.00 1015.81 1016.57 1017.24 1017.79 1018.21 1018.50 1018.66 1018.74 1018.77 1018.78 1018.81 1018.89 1019.03 1019.23 1019.48 1019.74 1020.00 1020.23 1020.40 1020.51 1020.56 1020.56 1020.52 1020.48 1020.43 1020.41 1020.41
1014.01 1013.99 1013.82 1013.54 1013.18 1012.80 1012.45 1012.19 1012.05 1012.06 1012.23 1012.58 1013.07 1013.68 1014.38 1015.12 1015.87 1016.57 1017.20 1017.72 1018.12 1018.41 1018.58 1018.67 1018.71 1018.73 1018.77 1018.85 1018.99 1019.20 1019.46 1019.76 1020.07 1020.37 1020.63 1020.83 1020.96 1021.03 1021.06 1021.06 1021.04 1021.02 1021.02 1021.02
1014.33 1014.31 1014.15 1013.90 1013.58 1013.25 1012.96 1012.75 1012.67 1012.74 1012.97 1013.34 1013.85 1014.46 1015.12 1015.80 1016.45 1017.03 1017.53 1017.92 1018.20 1018.37 1018.47 1018.51 1018.54 1018.57 1018.65 1018.80 1019.01 1019.29 1019.61 1019.97 1020.33 1020.67 1020.96 1021.19 1021.36 1021.47 1021.53 1021.57 1021.59 1021.60 1021.62 1021.64
1014.55 1014.50 1014.35 1014.11 1013.84 1013.56 1013.33 1013.20 1013.18 1013.30 1013.57 1013.97 1014.47 1015.05 1015.65 1016.25 1016.80 1017.27 1017.65 1017.93 1018.11 1018.21 1018.26 1018.29 1018.33 1018.40 1018.53 1018.73 1019.01 1019.35 1019.73 1020.14 1020.53 1020.90 1021.22 1021.49 1021.69 1021.84 1021.95 1022.03 1022.08 1022.13 1022.18 1022.22
1014.66 1014.57 1014.41 1014.21 1013.98 1013.77 1013.62 1013.56 1013.61 1013.78 1014.08 1014.48 1014.97 1015.50 1016.04 1016.55 1017.01 1017.39 1017.67 1017.87 1017.99 1018.06 1018.09 1018.13 1018.20 1018.31 1018.49 1018.75 1019.07 1019.45 1019.87 1020.29 1020.71 1021.09 1021.43 1021.71 1021.94 1022.12 1022.27 1022.39 1022.49 1022.57 1022.65 1022.71
1014.63 1014.51 1014.36 1014.20 1014.04 1013.91 1013.85 1013.87 1013.99 1014.22 1014.54 1014.94 1015.39 1015.87 1016.35 1016.78 1017.15 1017.46 1017.68 1017.84 1017.94 1018.00 1018.05 1018.12 1018.23 1018.39 1018.61 1018.90 1019.25 1019.64 1020.05 1020.47 1020.87 1021.24 1021.57 1021.86 1022.10 1022.30 1022.47 1022.63 1022.76 1022.88 1022.98 1023.06
1014.42 1014.30 1014.19 1014.09 1014.03 1014.00 1014.04 1014.16 1014.36 1014.63 1014.98 1015.37 1015.79 1016.22 1016.63 1016.99 1017.31 1017.56 1017.75 1017.89 1017.99 1018.08 1018.17 1018.29 1018.44 1018.64 1018.89 1019.19 1019.53 1019.90 1020.28 1020.65 1021.01 1021.35 1021.65 1021.91 1022.15 1022.35 1022.54 1022.72 1022.88 1023.02 1023.15 1023.25
1014.03 1013.95 1013.90 1013.90 1013.94 1014.04 1014.20 1014.42 1014.70 1015.03 1015.39 1015.78 1016.17 1016.55 1016.90 1017.21 1017.47 1017.69 1017.87 1018.02 1018.16 1018.29 1018.43 1018.59 1018.79 1019.02 1019.28 1019.57 1019.88 1020.20 1020.51 1020.82 1021.11 1021.38 1021.63 1021.86 1022.07 1022.28 1022.47 1022.66 1022.84 1023.00 1023.14 1023.26
1013.49 1013.47 1013.51 1013.62 1013.79 1014.02 1014.30 1014.62 1014.98 1015.36 1015.75 1016.13 1016.49 1016.83 1017.13 1017.40 1017.64 1017.84 1018.03 1018.21 1018.38 1018.56 1018.76 1018.97 1019.20 1019.44 1019.70 1019.95 1020.21 1020.46 1020.69 1020.92 1021.12 1021.32 1021.51 1021.69 1021.88 1022.07 1022.27 1022.46 1022.65 1022.83 1022.98 1023.10
1012.85 1012.91 1013.05 1013.27 1013.56 1013.92 1014.32 1014.75 1015.18 1015.61 1016.02 1016.40 1016.74 1017.04 1017.31 1017.55 1017.77 1017.98 1018.18 1018.39 1018.61 1018.84 1019.08 1019.33 1019.58 1019.82 1020.05 1020.26 1020.45 1020.62 1020.77 1020.90 1021.02 1021.14 1021.26 1021.41 1021.56 1021.74 1021.94 1022.14 1022.34 1022.53 1022.69 1022.82
1012.20 1012.33 1012.56 1012.89 1013.30 1013.77 1014.27 1014.78 1015.28 1015.75 1016.18 1016.56 1016.89 1017.17 1017.42 1017.64 1017.85 1018.07 1018.29 1018.53 1018.79 1019.06 1019.33 1019.60 1019.86 1020.08 1020.28 1020.43 1020.55 1020.63 1020.69 1020.73 1020.77 1020.82 1020.90 1021.00 1021.14 1021.31 1021.51 1021.72 1021.94 1022.14 1022.31 1022.44
1011.63 1011.82 1012.13 1012.55 1013.04 1013.59 1014.17 1014.75 1015.29 1015.79 1016.23 1016.62 1016.94 1017.21 1017.45 1017.67 1017.88 1018.11 1018.35 1018.62 1018.91 1019.20 1019.50 1019.77 1020.01 1020.21 1020.36 1020.45 1020.50 1020.50 1020.47 1020.43 1020.40 1020.40 1020.43 1020.51 1020.64 1020.81 1021.01 1021.24 1021.47 1021.69 1021.87 1022.01
1011.22 1011.46 1011.82 1012.29 1012.84 1013.45 1014.07 1014.68 1015.25 1015.76 1016.22 1016.60 1016.92 1017.19 1017.43 1017.66 1017.89 1018.13 1018.40 1018.69 1018.99 1019.30 1019.59 1019.85 1020.07 1020.23 1020.32 1020.35 1020.32 1020.25 1020.15 1020.04 1019.96 1019.91 1019.91 1019.97 1020.09 1020.27 1020.49 1020.73 1020.97 1021.20 1021.40 1021.54
1011.02 1011.29 1011.69 1012.18 1012.75 1013.37 1014.00 1014.62 1015.19 1015.71 1016.16 1016.55 1016.88 1017.16 1017.41 1017.66 1017.91 1018.17 1018.45 1018.76 1019.07 1019.37 1019.65 1019.89 1020.07 1020.18 1020.22 1020.18 1020.08 1019.94 1019.78 1019.63 1019.50 1019.41 1019.39 1019.44 1019.56 1019.74 1019.96 1020.21 1020.47 1020.70 1020.90 1021.05
1011.04 1011.33 1011.73 1012.22 1012.78 1013.38 1013.99 1014.59 1015.15 1015.66 1016.11 1016.50 1016.83 1017.13 1017.41 1017.68 1017.95 1018.24 1018.54 1018.85 1019.16 1019.46 1019.72 1019.92 1020.06 1020.12 1020.11 1020.01 1019.86 1019.66 1019.45 1019.25 1019.08 1018.97 1018.93 1018.97 1019.07 1019.25 1019.47 1019.72 1019.97 1020.20 1020.40 1020.54
1011.24 1011.53 1011.92 1012.38 1012.91 1013.47 1014.03 1014.59 1015.12 1015.60 1016.04 1016.43 1016.78 1017.11 1017.41 1017.71 1018.01 1018.32 1018.64 1018.96 1019.27 1019.55 1019.79 1019.96 1020.06 1020.08 1020.02 1019.88 1019.68 1019.44 1019.20 1018.96 1018.77 1018.63 1018.57 1018.58 1018.67 1018.83 1019.03 1019.26 1019.50 1019.72 1019.89 1020.02
1011.55 1011.83 1012.19 1012.60 1013.07 1013.57 1014.07 1014.58 1015.06 1015.51 1015.94 1016.33 1016.70 1017.04 1017.38 1017.71 1018.04 1018.38 1018.72 1019.05 1019.35 1019.62 1019.84 1019.99 1020.06 1020.05 1019.95 1019.79 1019.56 1019.30 1019.03 1018.78 1018.57 1018.41 1018.32 1018.31 1018.37 1018.50 1018.67 1018.87 1019.07 1019.25 1019.40 1019.50
1011.86 1012.12 1012.44 1012.80 1013.19 1013.62 1014.05 1014.49 1014.92 1015.34 1015.75 1016.14 1016.51 1016.88 1017.24 1017.61 1017.97 1018.33 1018.69 1019.03 1019.33 1019.60 1019.80 1019.94 1020.00 1019.97 1019.87 1019.70 1019.47 1019.21 1018.94 1018.68 1018.46 1018.28 1018.18 1018.14 1018.16 1018.25 1018.37 1018.53 1018.68 1018.82 1018.93 1019.00
1012.09 1012.32 1012.58 1012.88 1013.20 1013.54 1013.90 1014.27 1014.65 1015.03 1015.42 1015.80 1016.19 1016.57 1016.96 1017.35 1017.73 1018.12 1018.48 1018.83 1019.14 1019.41 1019.61 1019.75 1019.81 1019.80 1019.71 1019.55 1019.35 1019.11 1018.86 1018.61 1018.39 1018.22 1018.10 1018.03 1018.03 1018.07 1018.14 1018.24 1018.35 1018.44 1018.51 1018.54
1012.17 1012.36 1012.56 1012.78 1013.02 1013.29 1013.58 1013.89 1014.22 1014.56 1014.93 1015.30 1015.69 1016.08 1016.49 1016.89 1017.29 1017.69 1018.06 1018.42 1018.73 1019.00 1019.21 1019.36 1019.44 1019.46 1019.40 1019.29 1019.13 1018.93 1018.72 1018.51 1018.32 1018.15 1018.03 1017.95 1017.92 1017.92 1017.95 1018.00 1018.06 1018.11 1018.13 1018.13
1012.06 1012.19 1012.33 1012.48 1012.65 1012.85 1013.08 1013.33 1013.62 1013.94 1014.28 1014.65 1015.03 1015.43 1015.84 1016.25 1016.65 1017.05 1017.43 1017.78 1018.09 1018.36 1018.59 1018.76 1018.87 1018.92 1018.92 1018.86 1018.76 1018.63 1018.48 1018.33 1018.17 1018.04 1017.93 1017.84 1017.79 1017.77 1017.76 1017.77 1017.79 1017.80 1017.79 1017.77
1011.74 1011.81 1011.90 1011.99 1012.11 1012.26 1012.44 1012.66 1012.91 1013.21 1013.54 1013.90 1014.28 1014.67 1015.07 1015.48 1015.87 1016.26 1016.62 1016.96 1017.27 1017.55 1017.78 1017.97 1018.11 1018.21 1018.27 1018.27 1018.25 1018.19 1018.11 1018.01 1017.91 1017.82 1017.73 1017.66 1017.60 1017.56 1017.54 1017.52 1017.51 1017.49 1017.47 1017.43
Thickness
5707 5718 5723 5725 5728 5732 5727 5723 5713 5711 5704 5702 5699 5693 5687 5679 5670 5660 5650 5642 5633 5625 5617 5610 5603 5597 5592 5588 5584 5580 5576 5572 5568 5565 5563 5562 5560 5559 5559 5558 5558 5558 5558 5558
5702 5716 5719 5717 5725 5726 5726 5727 5721 5711 5699 5703 5697 5690 5678 5668 5659 5649 5640 5632 5623 5615 5607 5600 5594 5588 5583 5578 5574 5571 5567 5563 5560 5558 5555 5554 5552 5551 5550 5549 5548 5548 5548 5547
5690 5707 5706 5696 5711 5717 5719 5721 5716 5701 5694 5695 5685 5674 5665 5658 5650 5641 5631 5623 5614 5606 5598 5592 5585 5580 5575 5570 5567 5563 5559 5556 5553 5551 5548 5547 5545 5543 5542 5540 5539 5539 5539 5538
5691 5692 5673 5696 5720 5719 5713 5710 5711 5702 5694 5687 5676 5666 5659 5653 5644 5634 5624 5614 5606 5598 5591 5584 5578 5573 5567 5563 5559 5556 5552 5548 5546 5544 5541 5539 5537 5535 5533 5532 5532 5531 5531 5530
5686 5676 5681 5696 5708 5711 5703 5692 5698 5691 5684 5679 5671 5659 5647 5644 5637 5627 5617 5608 5599 5590 5583 5576 5571 5565 5561 5556 5553 5549 5545 5542 5540 5538 5535 5533 5530 5527 5526 5526 5525 5525 5524 5524
5682 5669 5666 5681 5705 5716 5704 5679 5689 5686 5677 5669 5663 5649 5635 5633 5627 5618 5609 5599 5591 5583 5576 5569 5564 5559 5554 5550 5546 5543 5539 5537 5534 5532 5529 5526 5524 5522 5521 5521 5520 5520 5519 5518
5680 5672 5672 5687 5705 5709 5679 5667 5683 5682 5674 5666 5656 5647 5634 5627 5618 5609 5600 5591 5584 5576 5569 5563 5559 5554 5549 5545 5541 5537 5535 5532 5529 5526 5524 5521 5519 5518 5517 5516 5516 5515 5515 5514
5680 5668 5662 5688 5695 5682 5674 5683 5680 5675 5667 5656 5646 5637 5628 5619 5610 5601 5593 5584 5577 5570 5564 5559 5555 5550 5544 5540 5536 5534 5530 5528 5525 5522 5522 5519 5517 5515 5515 5514 5513 5512 5512 5511
5679 5673 5683 5689 5686 5685 5686 5678 5673 5666 5659 5650 5639 5629 5619 5611 5603 5595 5588 5580 5574 5567 5561 5556 5551 5546 5542 5537 5534 5531 5528 5525 5522 5520 5518 5517 5516 5514 5513 5513 5512 5511 5511 5510
5682 5680 5685 5685 5686 5684 5681 5674 5669 5661 5653 5644 5633 5623 5613 5605 5597 5590 5583 5577 5571 5565 5559 5553 5549 5545 5541 5537 5533 5529 5526 5523 5521 5519 5517 5516 5515 5514 5513 5512 5511 5511 5511 5510
5678 5679 5680 5677 5679 5677 5674 5669 5662 5655 5648 5639 5629 5618 5609 5601 5594 5587 5581 5575 5570 5564 5559 5553 5548 5544 5541 5537 5533 5529 5526 5523 5522 5520 5518 5515 5513 5510 5510 5507 5507 5508 5509 5510
5674 5678 5677 5671 5674 5674 5667 5662 5656 5649 5641 5634 5625 5615 5607 5600 5593 5586 5579 5574 5569 5564 5559 5553 5549 5545 5541 5538 5534 5531 5527 5525 5524 5523 5521 5519 5516 5512 5508 5508 5507 5507 5507 5507
5683 5684 5680 5675 5674 5671 5664 5658 5652 5645 5636 5628 5621 5614 5606 5598 5591 5585 5580 5574 5569 5565 5560 5555 5550 5546 5543 5540 5536 5533 5530 5529 5528 5527 5525 5523 5521 5519 5514 5510 5509 5509 5509 5509
5683 5679 5672 5670 5667 5665 5660 5654 5648 5640 5633 5625 5618 5611 5603 5596 5590 5585 5580 5576 5571 5567 5562 5557 5553 5549 5545 5542 5539 5537 5535 5532 5531 5531 5530 5529 5527 5526 5525 5522 5519 5517 5514 5513
5679 5677 5672 5669 5665 5660 5656 5649 5641 5634 5628 5621 5614 5608 5601 5595 5590 5586 5583 5578 5574 5569 5565 5561 5556 5552 5550 5546 5543 5541 5540 5538 5537 5536 5535 5535 5535 5534 5534 5532 5530 5528 5525 5521
5676 5673 5669 5664 5659 5655 5651 5645 5638 5631 5626 5619 5613 5607 5602 5597 5593 5589 5584 5580 5575 5571 5568 5564 5560 5557 5554 5551 5548 5545 5543 5540 5539 5541 5541 5541 5542 5541 5541 5540 5538 5537 5535 5532
5670 5665 5663 5659 5656 5652 5648 5643 5638 5632 5626 5619 5613 5609 5604 5599 5594 5589 5586 5582 5578 5574 5571 5567 5564 5562 5559 5556 5553 5552 5551 5549 5544 5545 5548 5548 5548 5548 5547 5547 5546 5545 5544 5543
5674 5670 5666 5662 5658 5653 5649 5644 5639 5633 5627 5622 5616 5610 5605 5600 5595 5591 5588 5584 5580 5577 5574 5572 5569 5566 5564 5562 5560 5559 5559 5558 5555 5555 5555 5555 5554 5554 5554 5554 5554 5554 5552 5550
5673 5669 5666 5663 5660 5655 5650 5645 5640 5635 5630 5625 5618 5613 5608 5603 5599 5595 5591 5587 5582 5579 5577 5575 5571 5570 5568 5567 5565 5564 5565 5565 5564 5563 5562 5559 5559 5561 5562 5562 5562 5563 5563 5561
5671 5668 5666 5663 5660 5655 5650 5646 5642 5636 5632 5626 5621 5615 5610 5606 5602 5598 5594 5590 5588 5585 5582 5579 5575 5574 5573 5571 5568 5570 5571 5572 5571 5570 5569 5568 5568 5568 5569 5569 5569 5569 5569 5568
5668 5666 5663 5661 5658 5654 5651 5647 5642 5636 5632 5628 5622 5617 5613 5609 5605 5601 5597 5594 5592 5590 5586 5582 5580 5580 5578 5577 5573 5576 5578 5578 5578 5578 5577 5577 5576 5575 5576 5575 5576 5575 5575 5575
5665 5663 5661 5659 5655 5652 5650 5646 5642 5638 5633 5629 5625 5621 5616 5612 5609 5605 5603 5600 5598 5593 5590 5588 5587 5585 5584 5581 5582 5584 5585 5585 5585 5585 5585 5584 5583 5582 5582 5582 5582 5581 5581 5580
5661 5660 5658 5656 5653 5650 5648 5645 5642 5639 5635 5631 5627 5624 5620 5617 5614 5610 5606 5605 5603 5597 5596 5596 5593 5589 5586 5586 5588 5590 5591 5591 5591 5591 5591 5590 5590 5589 5589 5588 5588 5588 5587 5586
5656 5655 5655 5654 5652 5648 5644 5643 5642 5639 5636 5634 5631 5627 5624 5620 5618 5618 5616 5611 5607 5602 5601 5599 5595 5593 5589 5591 5593 5595 5596 5596 5597 5598 5598 5598 5597 5597 5596 5595 5594 5594 5593 5592
5652 5651 5650 5649 5647 5646 5644 5643 5641 5638 5637 5635 5634 5631 5629 5626 5624 5623 5622 5618 5611 5606 5605 5601 5598 5595 5595 5597 5599 5601 5602 5603 5604 5604 5604 5603 5603 5603 5603 5602 5601 5600 5599 5598
5647 5646 5647 5646 5647 5646 5646 5644 5642 5639 5638 5636 5635 5635 5633 5631 5629 5628 5625 5622 5618 5612 5611 5609 5604 5600 5602 5603 5604 5606 5606 5607 5607 5607 5607 5607 5607 5608 5607 5607 5606 5605 5604 5603
5644 5644 5643 5644 5645 5646 5647 5646 5644 5642 5641 5639 5638 5637 5636 5635 5633 5631 5629 5627 5623 5618 5616 5616 5614 5611 5610 5610 5610 5610 5611 5612 5612 5612 5613 5612 5611 5611 5611 5610 5610 5609 5608 5607